Powrót do katalogu

TITAN 3C TRANSTAGE DEB

LostMEO
NORAD 43452·DEBRIS·🇺🇸 United States

Wystrzelony Feb 9, 1969 z Cape Canaveral Space Force Station

Loading…

Następne Przeloty (najbliższe 24 godziny)

TLE

NieaktualneSource: Space-Track

Epoka: Jan 11, 2026, 13:08 UTC

1 43452U 69013K   26011.54725160 -.00000224  00000-0  00000-0 0  9996
2 43452   0.7943 136.6414 0549795 335.1951 254.1098  1.03158731 29171

Śledź TITAN 3C TRANSTAGE DEB w czasie rzeczywistym z AllMySat

Download on the App Store